Flag for Poland Weather past 2 weeks in Olsztyn, Poland

Now
47 °F

Cool.


Feels Like: 43 °F
Forecast: 37 / 42 °F
Wind: 10 mph from Southwest

Location: Ketrzyn

Current Time: Mar 30, 2015 at 4:23:05 PM

Latest Report: Mar 30, 2015 at 3:00 PM


Visibility: 28 mi

Pressure: 29.06 "Hg

Humidity: 67%

Dew point: 37 °F

Location of OlsztynLocation

Historic Weather in Olsztyn — Graph

°F

Olsztyn temperature yesterday

Maximum temperature yesterday: 49 °F (at 2:00 PM)
Minimum temperature yesterday: 29 °F (at 5:00 AM)
Average temperature yesterday: 42 °F

Past Weeks' High & Low Weather Summary

 TemperatureHumidityPressure
High61 °F (Mar 26, 1:00 PM)97% (Mar 27, 7:00 PM)30.82 "Hg (Mar 27, 7:00 PM)
Low22 °F (Mar 22, 6:00 AM)25% (Mar 19, 3:00 PM)28.97 "Hg (Mar 30, 8:00 AM)
Average42 °F64%30.11 "Hg
* Reported Mar 15 2:00 PM — Mar 30 3:00 PM, Olsztyn, Weather by CustomWeather, © 2015

Note: Actual official high and low records may vary slightly from our data, if they occured in-between our weather recording intervals... More about our weather records

Advertising

Olsztyn weather history for previous 24 hours

 ConditionsComfort  
Time TempWeatherWind HumidityBarometerVisibility
3:00 PM
Mon, Mar 30
47 °FCool.10 mph67%29.06 "Hg28 mi
2:00 PM48 °FCool.12 mph70%29.06 "Hg22 mi
1:00 PM47 °FCool.12 mph75%29.03 "Hg19 mi
12:00 PM47 °FCool.12 mph76%29.00 "Hg25 mi
11:00 AM45 °FRain showers. Cloudy.10 mph80%29.00 "Hg11 mi
10:00 AM45 °FQuite cool.10 mph77%29.00 "Hg31 mi
9:00 AM46 °FRain showers. Cloudy.10 mph84%28.97 "Hg19 mi
8:00 AM47 °FRain showers. Cloudy.10 mph91%28.97 "Hg4 mi
7:00 AM46 °FDrizzle. Cloudy.9 mph93%29.03 "Hg6 mi
6:00 AM45 °FRain showers. Overcast.9 mph95%29.06 "Hg2 mi
5:00 AM45 °FDrizzle. Overcast.9 mph93%29.09 "Hg3 mi
4:00 AM44 °FDrizzle. Overcast.9 mph93%29.12 "Hg3 mi
3:00 AM44 °FDrizzle. Overcast.9 mph93%29.18 "Hg2 mi
2:00 AM43 °FRain showers. Overcast.9 mph91%29.23 "Hg3 mi
1:00 AM44 °FDrizzle. Overcast.8 mph90%29.26 "Hg3 mi
12:00 AM44 °FDrizzle. Overcast.8 mph84%29.32 "Hg4 mi
10:00 PM
Sun, Mar 29
47 °FCool.8 mph67%29.38 "Hg10 mi
9:00 PM47 °FDrizzle. Overcast.7 mph66%29.41 "Hg10 mi
8:00 PM47 °FCool.7 mph62%29.44 "Hg13 mi
7:00 PM48 °FCool.7 mph62%29.47 "Hg11 mi
6:00 PM48 °FCool.7 mph62%29.47 "Hg10 mi
5:00 PM49 °FCool.9 mph60%29.50 "Hg10 mi
4:00 PM49 °FCool.9 mph57%29.54 "Hg15 mi
Weather by CustomWeather, © 2015

See weather overviewHow to use our weather pages